[[{"header":{"parameterUnit":"m.s-1","parameterCategory":1,"la1":30.2991,"la2":30.254,"lo1":-89.0895,"lo2":-89.0444,"dy":0.0017,"dx":0.0017,"nx":28,"ny":28,"refTime":"2023-04-17T15:00:00:Z","depth":0,"parameterNumber":2,"parameterNumberName":"U-component_of_WINDS"},"data":[0,0,0,0,0,0,0,0,0,0,0,0,0,0,0,0,0,0,0,0,0,0,0,0,0,0,0,0,0,0,0,0,0,0,0,0,0,0,0,0,0,0,0,0,0,0,0,0,0,0,0,0,0,0,0,0,0,0,-1.3787,-1.3787,0,-1.3767,-1.3767,-1.3767,-1.3722,-1.3721,-1.372,-1.372,-1.37,-1.37,-1.3701,0,0,0,0,0,0,0,0,0,0,0,0,0,-1.3789,-1.3789,-1.3787,-1.3787,-1.3787,-1.3767,-1.3767,-1.3767,-1.3722,-1.3721,-1.372,-1.3719,-1.37,-1.37,-1.3701,0,0,0,0,0,0,0,0,0,0,0,0,0,-1.3781,-1.3789,-1.3787,-1.3762,-1.376,-1.3767,-1.3767,-1.3766,-1.3723,-1.3721,-1.372,-1.3719,-1.37,-1.37,-1.3701,-1.3731,0,0,-1.3702,-1.3702,0,0,0,0,0,0,0,0,-1.3781,-1.378,-1.3766,-1.3764,-1.3761,-1.3746,-1.376,-1.3755,-1.3723,-1.3737,-1.372,-1.3718,-1.3716,-1.3715,-1.3715,-1.373,-1.3729,-1.3702,-1.3703,-1.3703,-1.3703,0,0,0,0,0,0,0,-1.3782,-1.3781,-1.3779,-1.3766,-1.3763,-1.3753,-1.375,-1.3759,-1.3735,-1.3735,-1.3732,-1.373,-1.3715,-1.3714,-1.3714,-1.3729,-1.3702,-1.3703,-1.3703,-1.3703,-1.3769,-1.377,0,0,0,0,0,0,-1.3786,-1.3782,-1.378,-1.3779,-1.3768,-1.3754,-1.3751,-1.3752,-1.3734,-1.373,-1.3732,-1.3728,-1.3714,-1.3713,-1.3713,-1.3747,-1.3703,-1.3703,-1.3704,-1.3767,-1.3769,-1.3771,0,0,0,0,0,0,-1.3786,-1.3786,-1.3781,-1.3779,-1.3778,-1.3755,-1.3757,-1.3752,-1.3752,-1.3731,-1.3727,-1.3735,-1.3713,-1.3712,-1.3727,-1.3746,-1.3703,-1.3704,-1.3766,-1.3768,-1.377,-1.3817,0,0,0,0,0,0,-1.3786,-1.3786,-1.3797,-1.378,-1.3778,-1.3795,-1.3758,-1.3753,-1.3753,-1.3748,-1.3734,-1.373,-1.3712,-1.3726,-1.3727,-1.3746,-1.3704,-1.3764,-1.3767,-1.3769,-1.3813,-1.382,-1.3826,0,0,0,0,0,-1.3786,-1.3811,-1.3798,-1.3798,-1.3791,-1.3796,-1.3795,-1.3773,-1.3754,-1.3765,-1.3752,-1.3731,-1.3744,-1.3728,-1.3729,-1.3748,-1.3763,-1.3766,-1.3769,-1.381,-1.3819,-1.3826,0,0,0,0,0,0,-1.3832,-1.3808,-1.3793,-1.3813,-1.3807,-1.3788,-1.3801,-1.3783,-1.3781,-1.3777,-1.3751,-1.3748,-1.3766,-1.3759,-1.3742,-1.3777,-1.375,-1.3753,-1.3781,-1.3789,-1.3795,-1.3796,-1.3705,0,0,0,0,0,-1.3844,-1.3849,-1.3829,-1.3848,-1.3846,-1.3824,-1.3826,-1.3809,-1.3802,-1.3799,-1.3787,-1.378,-1.3783,-1.3786,-1.3787,-1.3812,-1.3809,-1.3826,-1.3832,-1.3837,-1.3841,-1.3854,-1.3861,-1.3781,-1.3781,-1.3781,0,0,-1.3869,-1.3857,-1.3862,-1.3857,-1.385,-1.3857,-1.3822,-1.383,-1.3835,-1.38,-1.3813,-1.3804,-1.3795,-1.3816,-1.3824,-1.381,-1.3862,-1.3842,-1.3846,-1.3846,-1.3858,-1.3866,-1.3872,-1.3784,-1.3783,-1.3783,0,0,-1.3919,-1.391,-1.3926,-1.3919,-1.3909,-1.3895,-1.3899,-1.3883,-1.3876,-1.3888,-1.3862,-1.3868,-1.3873,-1.3868,-1.3866,-1.3915,-1.3895,-1.3916,-1.3949,-1.3962,-1.3969,-1.3974,-1.3992,-1.3998,-1.392,-1.392,-1.392,0,-1.3952,-1.396,-1.3936,-1.3946,-1.3945,-1.3913,-1.3929,-1.3924,-1.3916,-1.3916,-1.39,-1.3906,-1.3898,-1.3917,-1.3929,-1.3928,-1.3932,-1.3917,-1.397,-1.3975,-1.398,-1.3996,-1.4003,-1.3922,-1.3922,-1.3922,-1.3921,0,-1.4001,-1.4007,-1.4021,-1.4013,-1.4013,-1.4026,-1.4005,-1.4008,-1.3993,-1.398,-1.3994,-1.3983,-1.3982,-1.3985,-1.397,-1.4002,-1.3994,-1.3974,-1.3947,-1.399,-1.4005,-1.4011,-1.3926,-1.3925,-1.3924,-1.3924,0,0,-1.4078,-1.4057,-1.4063,-1.4059,-1.4045,-1.405,-1.4062,-1.406,-1.4064,-1.4059,-1.4069,-1.4074,-1.4056,-1.4054,-1.4038,-1.405,-1.4089,-1.4029,-1.4029,-1.4041,-1.4125,-1.4139,-1.4147,-1.4076,-1.4077,-1.4078,-1.4125,0,-1.4125,-1.4143,-1.4122,-1.4145,-1.4151,-1.4122,-1.4132,-1.4125,-1.4114,-1.4118,-1.4106,-1.411,-1.4086,-1.4085,-1.4095,-1.4083,-1.4106,-1.4079,-1.4085,-1.4086,-1.4088,-1.4155,-1.417,-1.4215,-1.4131,-1.4132,-1.4133,0,-1.4181,-1.4179,-1.4203,-1.4188,-1.419,-1.4199,-1.4197,-1.42,-1.4193,-1.4184,-1.4182,-1.4163,-1.4174,-1.4147,-1.4162,-1.4144,-1.4146,-1.414,-1.4142,-1.4141,-1.4112,-1.4156,-1.4229,-1.4236,-1.4142,-1.4141,-1.414,0,-1.4236,-1.4238,-1.4253,-1.425,-1.4234,-1.4241,-1.4235,-1.4226,-1.4226,-1.4224,-1.4225,-1.4224,-1.4224,-1.4224,-1.4205,-1.4188,-1.4223,-1.4195,-1.4217,-1.4217,-1.4225,-1.4225,-1.4299,-1.4227,-1.4226,-1.4226,-1.4226,0,-1.429,-1.4305,-1.4277,-1.4286,-1.4303,-1.4279,-1.4296,-1.4287,-1.4279,-1.4286,-1.4261,-1.4268,-1.4243,-1.4248,-1.4233,-1.4248,-1.4249,-1.4242,-1.4238,-1.4244,-1.4245,-1.4245,-1.4241,-1.4228,-1.4228,-1.4227,-1.4227,0,-1.4353,-1.4334,-1.4348,-1.4332,-1.4328,-1.4341,-1.4327,-1.4335,-1.4322,-1.4332,-1.4332,-1.4313,-1.4317,-1.4298,-1.43,-1.429,-1.4313,-1.4303,-1.4315,-1.4312,-1.4335,-1.4334,-1.4412,-1.4421,-1.4343,-1.4343,-1.4344,0,-1.4389,-1.44,-1.4385,-1.4387,-1.4382,-1.4387,-1.4387,-1.4365,-1.4366,-1.4359,-1.4368,-1.437,-1.437,-1.4379,-1.4365,-1.4366,-1.4357,-1.4384,-1.4357,-1.4363,-1.4357,-1.4357,-1.4358,-1.439,-1.4391,-1.4392,-1.4392,0,-1.4455,-1.4445,-1.4446,-1.4445,-1.4446,-1.4444,-1.444,-1.4444,-1.442,-1.4423,-1.4427,-1.4427,-1.4429,-1.4431,-1.443,-1.4423,-1.4404,-1.4401,-1.4406,-1.4413,-1.4419,-1.4416,-1.4331,-1.4399,-1.4399,-1.4398,-1.4398,-1.4397,-1.4505,-1.4514,-1.4505,-1.4507,-1.4502,-1.4499,-1.4506,-1.4494,-1.4497,-1.4496,-1.4482,-1.4489,-1.4481,-1.4477,-1.4473,-1.4478,-1.4465,-1.4473,-1.4474,-1.4477,-1.4481,-1.4418,-1.4478,-1.4477,-1.4477,-1.4477,-1.4477,0,-1.457,-1.4562,-1.4565,-1.456,-1.4563,-1.4544,-1.4539,-1.4542,-1.4548,-1.4542,-1.4543,-1.4548,-1.4551,-1.4538,-1.4538,-1.4545,-1.4537,-1.4546,-1.4546,-1.4545,-1.4492,-1.4488,-1.4554,-1.4554,-1.4554,-1.4553,-1.4553,-1.4553,-1.4604,-1.4618,-1.4607,-1.4618,-1.4611,-1.4617,-1.4616,-1.4613,-1.4608,-1.4615,-1.4617,-1.4608,-1.4599,-1.4599,-1.4601,-1.4597,-1.4599,-1.4612,-1.4605,-1.4556,-1.4548,-1.4541,-1.4537,-1.4612,-1.4612,-1.4657,-1.4658,-1.4658]},{"header":{"parameterUnit":"m.s-1","parameterCategory":1,"la1":30.2991,"la2":30.254,"lo1":-89.0895,"lo2":-89.0444,"dy":0.0017,"dx":0.0017,"nx":28,"ny":28,"refTime":"2023-04-17T15:00:00:Z","depth":0,"parameterNumber":3,"parameterNumberName":"V-component_of_WINDS"},"data":[0,0,0,0,0,0,0,0,0,0,0,0,0,0,0,0,0,0,0,0,0,0,0,0,0,0,0,0,0,0,0,0,0,0,0,0,0,0,0,0,0,0,0,0,0,0,0,0,0,0,0,0,0,0,0,0,0,0,3.1701,3.1702,0,3.1714,3.1714,3.1714,3.1692,3.1691,3.1691,3.169,3.1702,3.1703,3.1704,0,0,0,0,0,0,0,0,0,0,0,0,0,3.1657,3.1658,3.1701,3.1702,3.1702,3.1714,3.1714,3.1714,3.1692,3.1691,3.169,3.169,3.1701,3.1703,3.1704,0,0,0,0,0,0,0,0,0,0,0,0,0,3.1674,3.1658,3.1701,3.1692,3.1692,3.1714,3.1714,3.1714,3.1692,3.1691,3.169,3.1689,3.1701,3.1702,3.1704,3.1735,0,0,3.1709,3.1709,0,0,0,0,0,0,0,0,3.1673,3.1675,3.1693,3.1693,3.1692,3.17,3.1703,3.1721,3.1693,3.1692,3.169,3.1689,3.1702,3.1703,3.1708,3.1736,3.1737,3.1709,3.171,3.171,3.1711,0,0,0,0,0,0,0,3.1671,3.1674,3.1706,3.1694,3.1693,3.1687,3.1688,3.1706,3.1703,3.1692,3.169,3.1692,3.1702,3.1707,3.1708,3.1737,3.1709,3.171,3.1711,3.1712,3.179,3.1791,0,0,0,0,0,0,3.1672,3.1674,3.1706,3.1707,3.1679,3.1689,3.169,3.1699,3.1703,3.1702,3.1693,3.1691,3.1705,3.1707,3.1709,3.1745,3.171,3.1712,3.1713,3.1789,3.179,3.1791,0,0,0,0,0,0,3.1671,3.1675,3.1705,3.169,3.1693,3.1691,3.1701,3.17,3.1705,3.1704,3.1703,3.1699,3.1704,3.1707,3.1729,3.1745,3.1712,3.1714,3.1787,3.1789,3.1791,3.1818,0,0,0,0,0,0,3.167,3.1675,3.1687,3.169,3.1694,3.1726,3.1702,3.1701,3.1708,3.1705,3.1709,3.1709,3.1703,3.1727,3.173,3.1746,3.1715,3.1786,3.1788,3.179,3.1816,3.1821,3.1825,0,0,0,0,0,3.1668,3.1694,3.1688,3.1692,3.171,3.1727,3.1729,3.1722,3.1709,3.1721,3.172,3.1709,3.1743,3.1729,3.1733,3.175,3.1785,3.1787,3.179,3.1814,3.182,3.1825,0,0,0,0,0,0,3.1693,3.1694,3.1687,3.1715,3.1721,3.1723,3.1738,3.1729,3.1739,3.1736,3.1727,3.1728,3.1752,3.1753,3.1738,3.178,3.1761,3.1765,3.1778,3.1784,3.1788,3.1787,3.1716,0,0,0,0,0,3.1701,3.1716,3.1716,3.1741,3.1744,3.1741,3.1748,3.1742,3.1748,3.175,3.1751,3.1757,3.1768,3.1776,3.1787,3.1816,3.1816,3.183,3.1834,3.1838,3.1841,3.1855,3.1861,3.18,3.18,3.18,0,0,3.172,3.1722,3.1732,3.1746,3.175,3.1764,3.1743,3.1759,3.177,3.1753,3.1773,3.1774,3.178,3.1805,3.1816,3.1807,3.1858,3.1841,3.1844,3.1845,3.1858,3.1864,3.1869,3.1802,3.1801,3.1801,0,0,3.176,3.1764,3.1784,3.1788,3.1794,3.1792,3.1797,3.18,3.18,3.1821,3.1808,3.182,3.1841,3.1845,3.185,3.1891,3.188,3.1895,3.1918,3.1932,3.1937,3.1941,3.1954,3.196,3.1898,3.1898,3.1898,0,3.1781,3.1803,3.1796,3.1813,3.1819,3.1804,3.1824,3.1829,3.1838,3.1842,3.1832,3.1857,3.186,3.1885,3.1895,3.19,3.1905,3.1894,3.1937,3.1941,3.1945,3.1957,3.1963,3.1899,3.1899,3.1899,3.1899,0,3.1828,3.1843,3.1859,3.1868,3.1876,3.1895,3.189,3.1899,3.1893,3.1891,3.1912,3.1915,3.1925,3.1931,3.1925,3.1956,3.195,3.1938,3.1919,3.1952,3.1964,3.1969,3.1902,3.1901,3.1901,3.19,0,0,3.1884,3.1889,3.1895,3.1898,3.1904,3.1915,3.1932,3.1943,3.195,3.1957,3.1971,3.1989,3.1978,3.1983,3.1978,3.199,3.2021,3.1977,3.1977,3.1984,3.2054,3.2062,3.2068,3.2015,3.2016,3.2016,3.2053,0,3.1923,3.1953,3.1947,3.1977,3.199,3.1976,3.1991,3.1996,3.1995,3.2005,3.2004,3.2016,3.2001,3.2004,3.2016,3.2015,3.2035,3.2012,3.2026,3.2027,3.2025,3.2074,3.2083,3.2117,3.2058,3.2059,3.2059,0,3.1973,3.1981,3.2012,3.2014,3.2019,3.2033,3.2042,3.2053,3.2057,3.2055,3.2061,3.2053,3.207,3.2051,3.2073,3.2058,3.2064,3.2064,3.2065,3.2065,3.2044,3.2075,3.2128,3.2133,3.2067,3.2066,3.2066,0,3.2009,3.2028,3.2048,3.2052,3.2056,3.2066,3.2067,3.2071,3.2078,3.2085,3.2089,3.2099,3.2104,3.2111,3.2105,3.2093,3.2128,3.2109,3.2126,3.2127,3.2134,3.2133,3.2188,3.2139,3.2139,3.2139,3.2139,0,3.2052,3.2071,3.2065,3.2077,3.2098,3.209,3.2111,3.2111,3.2114,3.2126,3.2115,3.2127,3.2119,3.2129,3.2125,3.2144,3.2146,3.2145,3.2143,3.2145,3.2145,3.2148,3.2145,3.214,3.214,3.214,3.214,0,3.2096,3.2092,3.2114,3.2115,3.2116,3.2131,3.2132,3.2143,3.2141,3.2157,3.216,3.2156,3.2168,3.2163,3.2176,3.2173,3.2196,3.2192,3.2195,3.2193,3.221,3.2208,3.2268,3.2275,3.2222,3.2223,3.2223,0,3.2124,3.2138,3.2141,3.2148,3.2151,3.2163,3.2169,3.2162,3.2169,3.2175,3.2186,3.2197,3.2205,3.2224,3.2222,3.2232,3.2227,3.2247,3.2228,3.2229,3.2226,3.2225,3.2226,3.2251,3.2251,3.2252,3.2252,0,3.2172,3.217,3.218,3.2189,3.2197,3.2204,3.2209,3.2216,3.2209,3.2218,3.223,3.2236,3.2249,3.2259,3.2267,3.2269,3.2259,3.2258,3.2262,3.2264,3.2265,3.2263,3.2204,3.2257,3.2256,3.2256,3.2256,3.2256,3.2208,3.222,3.2223,3.2234,3.2238,3.2244,3.2254,3.2253,3.2263,3.2273,3.2268,3.2282,3.2285,3.2295,3.2298,3.2308,3.23,3.2306,3.2308,3.2309,3.2311,3.2264,3.231,3.2309,3.2309,3.2309,3.2309,0,3.2255,3.2257,3.2267,3.2276,3.2284,3.2275,3.2281,3.2288,3.23,3.2305,3.2313,3.2326,3.2336,3.2335,3.2344,3.2352,3.2348,3.2355,3.2354,3.2354,3.2318,3.2313,3.2358,3.2358,3.2358,3.2358,3.2358,3.2358,3.2281,3.23,3.2298,3.2318,3.2319,3.2332,3.2336,3.2341,3.2344,3.2359,3.2367,3.2367,3.2369,3.2378,3.2387,3.2386,3.2389,3.2398,3.2395,3.2362,3.2357,3.2352,3.2347,3.2399,3.2399,3.243,3.2431,3.2431]}]]